Theta_e
301 301 302 302 301 301 299 296 286 302 304 287 288 283 284 288 287 289 286 286 284 283 284 282 283 282 287 292 291 286 289 286 282 285 291 293 289 285 285 282 281 283 284 281
301 301 301 301 301 301 298 292 291 302 301 281 283 285 284 285 285 285 285 284 286 286 283 280 285 286 290 291 290 286 288 284 280 283 287 290 287 287 287 285 285 281 279 281
301 301 301 301 301 301 298 293 285 291 295 291 285 283 283 282 287 285 287 285 286 284 283 285 282 284 289 291 290 290 291 284 281 278 281 285 284 287 288 285 282 283 284 283
300 300 301 301 301 300 298 293 287 290 283 286 285 285 284 281 280 286 286 283 284 283 279 281 282 285 286 289 289 291 288 281 283 284 284 285 285 286 286 284 285 283 283 286
300 301 301 300 301 300 296 289 287 290 286 287 285 285 282 282 282 284 282 282 283 283 280 281 278 283 283 283 287 285 288 280 283 281 284 285 282 285 286 287 287 286 286 285
301 301 301 301 301 299 295 296 296 290 285 285 284 283 284 283 285 286 286 285 284 282 284 287 287 288 288 287 285 283 283 282 279 276 282 282 278 283 284 286 288 287 283 288
301 301 301 301 301 300 298 297 295 286 282 284 284 285 284 284 285 284 286 287 284 287 292 292 290 288 288 287 287 288 284 282 280 276 279 271 283 289 288 286 287 288 287 289
301 301 301 301 301 301 299 302 295 287 282 285 285 285 285 286 287 285 286 287 289 292 289 283 280 280 282 283 286 285 286 283 278 275 275 279 283 285 285 284 283 289 288 289
299 300 300 300 301 301 300 299 302 290 284 286 288 286 286 283 284 285 286 291 294 292 286 281 275 273 277 277 280 288 286 286 281 278 273 271 282 287 290 288 279 289 289 288
299 299 299 300 300 301 299 298 302 294 285 290 290 286 285 288 286 284 286 287 288 291 283 278 276 276 281 275 276 278 280 281 278 278 275 279 287 288 290 277 280 290 290 290
298 298 298 299 300 300 299 297 302 295 288 290 292 293 289 289 288 283 287 286 285 285 279 279 279 278 281 279 281 280 279 277 277 279 276 273 289 288 282 287 291 291 291 290
298 298 298 298 299 300 299 295 301 300 291 290 295 296 297 295 294 290 290 287 287 287 283 283 282 279 282 281 276 286 278 282 280 279 278 287 290 290 291 291 290 290 290 291
297 297 297 298 298 299 300 296 299 297 290 291 293 293 297 300 299 299 287 290 290 289 291 285 284 280 284 277 278 282 284 287 283 283 285 287 290 291 292 292 291 292 292 291
297 297 297 297 298 298 299 297 298 296 292 286 289 298 296 300 300 299 297 294 295 294 292 286 285 282 288 283 283 283 285 286 284 283 286 286 289 291 292 291 292 291 291 291
296 297 297 297 298 298 300 300 299 299 291 284 287 294 297 298 298 297 297 295 292 289 287 286 284 287 285 287 286 283 286 283 282 281 288 287 287 291 292 290 290 290 289 289
296 296 297 297 298 297 298 290 299 300 297 288 283 293 293 296 297 295 294 294 292 290 288 287 289 292 287 282 280 286 289 289 289 286 290 289 290 291 292 289 289 289 289 289
296 296 296 297 296 297 294 292 295 298 298 289 284 286 293 294 294 295 294 295 292 291 288 288 288 289 288 284 280 286 288 289 290 291 290 288 290 288 290 290 290 290 290 290
296 296 297 296 298 298 295 299 297 297 292 291 284 284 287 294 290 289 295 292 292 290 289 290 287 288 288 281 286 288 289 290 289 290 291 290 291 291 290 290 289 287 287 287
296 297 297 297 295 295 295 295 297 298 293 285 286 282 281 293 290 292 292 293 285 291 286 287 287 284 281 285 287 287 289 289 288 290 290 290 289 289 289 288 287 285 285 286
297 296 292 286 296 293 296 295 292 291 292 290 284 289 285 290 289 288 287 289 285 281 285 289 283 282 289 289 290 290 290 290 291 288 287 288 287 288 288 287 286 286 286 286
296 292 290 296 296 293 292 286 284 286 283 288 288 289 286 293 285 284 288 284 284 278 282 282 280 281 285 290 289 291 291 291 291 290 290 290 289 288 288 287 286 286 285 284
292 291 293 294 290 287 283 281 284 283 281 288 286 288 289 289 291 286 287 282 283 276 286 281 278 284 289 289 288 290 291 291 290 290 290 290 290 289 289 288 287 286 285 284
295 289 286 285 285 279 277 276 279 282 286 288 288 286 289 289 290 286 284 279 279 286 280 278 282 287 289 289 289 289 291 291 291 290 290 290 290 289 288 285 286 286 284 284
288 283 278 280 279 280 282 283 285 289 289 288 288 287 287 288 285 285 279 282 283 277 275 277 285 287 288 289 289 288 288 289 289 289 289 289 287 286 285 284 284 284 285 284
284 284 277 280 285 288 289 290 289 290 291 289 288 287 286 284 282 282 281 278 275 278 278 285 287 288 289 289 289 288 288 287 288 289 288 286 286 285 285 285 285 287 285 285
285 284 282 285 285 288 288 289 288 291 290 290 288 283 281 280 281 278 277 276 276 281 286 288 289 288 288 288 288 288 287 287 287 287 288 287 286 286 287 288 288 285 285 285
283 283 287 287 287 288 289 289 288 292 289 285 284 279 278 283 278 277 281 280 285 288 289 290 290 288 288 288 288 286 286 286 287 287 287 286 287 287 286 285 287 288 287 285
Wind_Speed
4 7 7 6 7 9 7 3 4 3 1 4 2 6 11 13 21 22 19 19 20 20 20 17 17 18 6 12 13 5 3 3 4 12 4 4 4 5 1 5 4 5 3 2
4 6 5 5 6 8 7 4 8 4 1 5 7 15 17 17 13 15 20 17 19 19 16 10 13 8 3 9 10 10 9 5 4 3 5 3 4 3 3 3 3 3 1 3
1 2 4 5 6 6 5 3 4 2 3 6 13 15 14 14 13 20 12 17 14 16 16 19 12 16 5 11 4 5 6 3 6 6 9 7 3 4 5 2 2 4 2 6
2 3 4 7 7 5 4 2 4 9 7 10 16 18 16 18 17 16 14 3 11 9 7 14 16 8 6 8 3 7 8 4 7 9 10 10 14 2 5 4 2 4 5 3
2 3 4 7 7 3 1 2 4 6 12 12 17 13 16 20 16 11 13 16 17 9 5 6 14 11 7 6 3 6 4 6 13 12 6 6 7 15 9 6 5 3 4 6
5 6 6 6 5 3 1 2 3 3 8 12 12 10 16 21 21 10 13 13 11 13 11 13 11 14 14 12 11 10 8 7 10 11 8 8 7 6 12 11 6 7 7 7
7 7 7 5 6 6 5 4 2 2 8 10 14 17 9 13 20 18 12 14 13 10 13 11 16 17 16 15 13 10 6 6 6 10 12 10 12 6 6 2 3 6 8 7
7 7 7 7 7 10 6 2 1 2 7 13 14 19 16 16 14 11 12 14 12 8 11 8 9 10 12 14 16 16 14 11 6 6 9 13 11 8 3 3 12 16 8 15
8 8 8 7 9 10 7 2 2 2 4 3 17 16 14 12 12 11 10 9 8 11 4 4 7 9 13 5 4 8 5 10 8 8 6 6 8 8 8 5 7 13 14 14
7 8 8 8 8 10 7 3 2 2 3 10 11 12 9 9 11 8 8 14 9 11 3 6 10 11 13 8 12 6 2 4 9 8 8 5 5 5 11 4 3 5 9 11
8 8 9 9 10 7 6 6 3 3 4 13 10 12 13 12 9 9 10 6 4 3 3 3 4 5 5 5 10 9 2 2 3 6 8 8 9 2 4 3 5 7 8 10
8 9 9 10 10 10 5 4 0 3 4 8 17 17 16 12 11 9 6 7 4 2 4 3 4 7 5 10 5 8 2 4 2 3 0 8 3 6 5 8 6 9 10 9
8 9 10 10 10 10 7 5 5 2 3 10 6 6 3 5 7 6 3 1 3 1 1 4 4 5 3 2 2 2 6 11 1 2 6 6 7 4 5 6 8 10 10 11
9 10 11 11 11 11 10 5 3 3 5 5 7 3 5 0 6 5 9 8 5 4 3 3 4 6 6 5 5 5 1 4 5 4 4 5 14 11 7 10 9 11 12 12
10 11 11 12 12 12 9 5 3 4 3 4 9 16 12 4 5 5 4 6 5 1 3 4 7 6 7 8 2 6 6 8 5 3 5 6 9 9 7 9 11 11 13 12
12 12 13 13 13 9 5 3 4 5 3 4 5 9 7 3 4 5 4 4 5 2 3 7 4 6 4 5 5 9 11 5 7 5 9 7 5 3 14 10 11 11 10 12
13 14 13 14 12 7 4 1 1 4 6 2 5 4 3 1 4 2 4 3 3 3 3 5 6 6 3 4 7 11 6 9 8 8 7 7 11 9 8 10 11 12 13 13
14 15 15 13 9 8 6 4 3 3 4 3 4 5 4 1 2 2 3 3 3 5 4 5 6 5 5 3 7 13 12 12 7 2 4 6 6 8 10 10 10 11 11 12
16 14 12 4 5 3 3 3 4 4 3 3 4 6 4 2 4 3 2 3 3 3 5 6 5 6 4 3 7 9 11 4 8 5 5 4 9 8 10 9 10 10 11 11
18 7 4 1 1 0 4 4 2 4 4 4 5 7 6 3 2 2 3 2 3 3 4 2 4 7 10 7 5 5 5 4 6 5 7 6 7 9 9 9 8 8 10 10
5 2 1 4 6 4 4 2 4 5 4 5 6 8 6 2 3 5 3 2 3 4 1 3 3 1 1 3 3 4 5 4 5 5 4 5 7 7 8 8 7 8 10 10
6 6 6 4 3 4 4 4 4 6 5 4 5 2 4 1 1 2 3 3 3 5 2 3 3 3 4 5 2 2 3 3 5 5 5 6 6 7 8 9 8 9 9 7
4 3 3 4 5 5 6 7 5 4 4 3 3 3 1 1 2 1 3 3 5 6 3 4 1 6 6 5 4 3 5 5 6 8 8 7 7 9 8 8 6 6 8 8
4 4 5 6 6 6 7 8 3 2 3 2 4 0 1 0 2 2 4 4 3 4 5 8 4 6 4 5 3 1 3 4 4 8 10 6 1 3 3 4 6 5 5 8
4 4 6 8 7 6 4 4 3 2 1 3 1 2 4 3 2 4 5 4 5 5 6 3 4 3 3 4 3 4 5 5 5 6 5 2 4 4 5 6 6 6 4 5
4 7 6 6 6 4 2 4 5 4 2 1 1 2 2 4 4 5 6 4 5 2 4 5 4 2 3 3 3 4 5 7 7 7 8 6 4 5 8 8 5 5 6 6
6 6 6 7 7 5 6 7 7 7 5 4 3 4 6 3 5 4 4 7 5 5 2 2 3 2 2 2 3 2 4 6 6 7 5 5 7 7 6 8 9 6 8 7
Wind_Direction
290 274 293 315 318 327 269 308 323 132 282 287 275 276 292 311 305 299 297 288 295 290 310 307 300 286 349 343 353 10 19 231 285 318 170 170 167 157 139 295 74 46 351 64
260 275 295 312 339 334 315 343 297 103 260 289 302 299 303 307 291 319 320 295 300 305 295 293 319 8 316 331 358 4 343 18 314 264 157 148 249 169 125 85 39 133 15 88
28 20 29 13 352 329 303 359 311 317 222 293 298 316 305 315 314 303 311 318 306 315 303 291 270 282 357 300 339 352 357 12 349 344 352 309 319 67 113 43 199 127 85 121
328 13 22 24 10 345 293 343 268 320 304 317 311 308 309 304 306 306 304 302 315 344 332 331 300 16 336 310 60 27 13 325 346 326 316 325 320 315 155 159 93 21 48 93
318 356 33 31 16 356 296 282 306 338 297 310 313 318 309 300 295 317 308 307 320 287 318 273 298 329 358 312 334 8 48 342 320 314 294 307 322 292 261 204 184 225 188 238
67 54 40 27 4 302 293 324 304 293 296 313 316 322 325 302 316 309 305 313 321 319 324 310 290 268 291 295 301 313 321 325 326 295 336 339 285 256 250 273 240 208 223 240
57 38 26 10 353 333 288 295 298 299 296 305 324 330 322 292 307 314 303 296 295 300 296 302 287 287 282 272 269 259 242 248 276 286 295 266 278 182 313 278 304 317 325 353
31 24 18 15 353 341 307 275 230 219 288 317 310 336 331 321 320 309 289 284 299 305 312 308 302 288 261 248 246 243 238 220 252 261 277 294 283 34 319 203 65 24 23 66
23 13 2 352 351 338 312 340 109 151 296 282 323 332 339 335 340 329 348 331 342 321 294 293 282 299 310 292 294 51 297 248 202 254 287 285 73 30 30 350 97 29 38 37
17 10 4 353 338 335 316 291 237 204 264 280 321 320 319 326 331 315 15 337 351 2 308 280 275 278 281 273 290 279 262 311 235 234 247 271 40 353 315 260 95 27 37 33
4 1 356 353 349 330 321 336 6 324 267 292 279 313 316 320 323 329 339 327 29 323 332 304 329 297 307 275 275 265 278 295 274 263 237 241 355 294 31 97 51 26 29 24
351 348 346 345 344 339 311 276 307 258 248 278 301 287 280 274 296 307 316 301 321 25 302 333 311 303 304 309 293 350 219 241 11 167 345 274 125 149 51 46 29 14 3 348
342 339 336 334 331 328 304 307 324 289 268 292 269 268 320 269 267 259 280 349 360 329 115 304 293 298 314 3 330 348 352 344 3 184 171 225 224 165 85 62 22 351 337 339
334 331 329 325 323 319 308 275 277 274 298 283 299 322 279 24 289 271 241 272 266 280 291 263 274 297 259 328 314 16 325 4 347 94 42 295 31 15 28 9 356 359 353 348
325 323 321 318 319 312 289 260 260 243 277 299 300 293 280 276 286 294 276 255 273 286 288 257 288 309 341 319 318 10 59 24 20 58 359 20 18 13 2 19 7 358 2 339
317 317 316 314 314 307 264 342 203 228 267 297 295 325 257 212 217 276 258 240 247 165 253 295 282 300 318 320 337 6 1 29 79 12 9 342 303 27 28 8 13 358 333 340
313 313 310 311 303 264 253 334 52 337 304 261 275 281 266 258 291 261 271 265 250 284 291 258 270 279 240 280 307 326 353 2 6 31 354 353 23 7 9 16 5 353 345 356
311 308 307 306 292 260 258 181 186 305 281 267 270 284 265 199 278 282 217 232 209 213 241 265 280 286 235 257 345 357 358 352 345 33 15 11 2 360 12 12 6 352 353 349
307 304 304 268 234 223 98 217 253 243 253 283 264 277 315 275 326 314 278 243 256 236 234 255 266 278 248 13 3 342 328 324 227 5 17 359 16 357 4 11 11 352 340 346
306 277 187 275 143 82 195 179 188 201 214 228 250 269 277 289 311 283 299 253 274 262 217 249 235 265 83 46 0 341 20 4 9 353 3 5 351 358 354 24 4 336 345 337
213 256 264 75 143 233 203 226 217 206 225 211 236 242 268 119 317 319 284 287 268 277 301 284 283 36 61 17 353 348 358 11 30 359 346 349 360 348 348 1 360 339 346 337
343 306 279 293 266 229 221 226 221 228 242 191 205 212 253 235 72 281 313 270 273 254 25 300 266 103 80 98 118 313 347 8 347 332 335 343 346 348 354 353 358 349 333 330
239 212 236 212 204 233 225 199 219 219 210 238 227 224 337 279 64 290 265 279 250 320 259 234 30 107 82 75 67 341 344 333 333 330 331 330 4 4 358 335 323 311 322 327
231 203 229 222 196 233 205 242 225 172 174 193 251 285 52 247 264 235 250 250 278 247 230 252 122 117 115 103 113 308 318 1 330 322 320 347 311 303 271 264 287 281 293 319
232 212 241 223 234 245 246 295 283 302 264 223 173 293 250 214 226 235 237 232 236 230 256 73 126 135 82 60 38 6 350 355 317 312 306 281 239 245 258 248 252 245 250 282
243 237 231 253 274 233 311 261 252 256 202 101 191 245 260 237 234 223 218 247 231 288 32 115 165 193 60 26 355 346 346 324 316 306 302 313 305 265 272 286 241 227 220 238
235 236 238 263 276 260 221 210 237 251 185 192 226 215 221 219 233 233 240 256 312 356 97 142 96 63 30 39 322 196 268 291 287 280 289 284 280 277 281 290 295 272 222 226